Regional Weather Roundup
Issued by NWS Cleveland, OH

Home | Current Version | Previous Version | Graphics & Text | Print | Product List | Glossary On
Versions: 1 2 3 4 5 6 7 8 9 10 11 12 13 14 15 16 17 18 19 20 21 22 23 24 25 26 27 28 29 30 31 32 33 34 35 36 37 38 39 40 41 42 43 44 45 46 47 48 49 50
000
ASUS41 KCLE 300100
RWRCLE
OHIO REGIONAL WEATHER ROUNDUP
NATIONAL WEATHER SERVICE WILMINGTON, OH
900 PM EDT TUE JUL 29 2014

NOTE: "FAIR" INDICATES FEW OR NO CLOUDS BELOW 12,000 FEET WITH NO
SIGNIFICANT WEATHER AND/OR OBSTRUCTIONS TO VISIBILITY.

OHZ001>008-015>018-024>027-034-035-043-044-300200-
   NORTHWEST OHIO

CITY           SKY/WX    TMP DP  RH WIND       PRES   REMARKS
DEFIANCE       MOCLDY    64  60  87 CALM      29.99S
FINDLAY        MOCLDY    65  58  78 SW6       29.99S
TOLEDO EXPRESS PTCLDY    66  58  75 SW7       29.97F
TOLEDO METCALF MOCLDY    69  54  58 SW10      29.98F
LIMA           PTCLDY    65  57  75 SW6       30.01S
$$

OHZ009>014-019>023-028>033-038-089-300200-
   NORTHEAST OHIO

CITY           SKY/WX    TMP DP  RH WIND       PRES   REMARKS
CLE-HOPKINS    PTCLDY    64  52  64 S6        30.01F
CLE-LAKEFRONT  PTCLDY    67  52  58 SW8       29.97F
CUY CO. ARPT   MOCLDY    66  55  68 S5        30.00F
LORAIN-ELYRIA  MOCLDY    67  54  63 SW6       30.00S
ASHTABULA      MOCLDY    59  54  83 CALM      30.01S
AKRON-CANTON   MOCLDY    63  51  65 S3        30.02S
WOOSTER        NOT AVBL
MANSFIELD      PTCLDY    60  54  80 S6        30.02F
YOUNGSTOWN     PTCLDY    61  53  75 CALM      30.01S
$$

OHZ042-051>053-060>062-070>072-077>081-300200-
  SOUTHWEST OHIO

CITY           SKY/WX    TMP DP  RH WIND       PRES   REMARKS
CINC-COVINGTON PTCLDY    68  53  58 SW3       30.06R
CINC-LUNKEN    CLEAR     65  57  75 CALM      30.05S
HAMILTON       PTCLDY    63  59  87 CALM      30.05S
DAYTON         NOT AVBL
WRIGHT-PAT AFB MOCLDY    67  57  69 SW6       30.04F
DAYTON GENERAL CLOUDY    69  55  60 SW5       30.04S
WILMINGTON     PTCLDY    62  55  77 SW3       30.05S
$$

OHZ036-037-039>041-045>050-054>059-063>069-073>076-082>088-300200-
  CENTRAL AND SOUTHEAST OHIO

CITY           SKY/WX    TMP DP  RH WIND       PRES   REMARKS
COLUMBUS       PTCLDY    67  52  58 W5        30.03R
OSU AIRPORT    MOCLDY    66  53  63 S5        30.03S
BOLTON FIELD   NOT AVBL
RICKENBACK AFB NOT AVBL
NEWARK         CLEAR     61  55  81 CALM      30.04R
MARION         MOCLDY    64  55  72 SW7       30.02S
LANCASTER      CLEAR     61  55  81 MISG      30.05R
ZANESVILLE     CLEAR     63  52  67 CALM      30.04S
NEW PHILLY     CLEAR     60  54  80 CALM      30.04S
$$



USA.gov is the U.S. government's official web portal to all federal, state and local government web resources and services.